Regional Weather Roundup
Issued by NWS

Home | Current Version | Previous Version | Graphics & Text | Print | Product List | Glossary On
Versions: 1 2 3 4 5 6 7 8 9 10 11 12 13 14 15 16 17 18 19 20 21 22 23 24 25 26 27 28 29 30 31 32 33 34 35 36 37 38 39 40 41 42 43 44 45 46 47 48 49 50
000
ASUS43 KMPX 030610
RWRMN
WEATHER ROUNDUP FOR MINNESOTA
NATIONAL WEATHER SERVICE TWIN CITIES/CHANHASSEN MN
100 AM CDT FRI JUL 03 2015


NOTE: "FAIR" INDICATES FEW OR NO CLOUDS BELOW 12,000 FEET WITH NO
SIGNIFICANT WEATHER AND/OR OBSTRUCTIONS TO VISIBILITY. N/A MEANS
CURRENT SKY AND/OR WEATHER CONDITIONS ARE NOT AVAILABLE.

MNZ060>063-068>070-030700-
   Twin Cities Metro

CITY           SKY/WX    TMP DP  RH WIND       PRES   REMARKS
TWIN CITIES    CLEAR     67  55  65 S3        29.98S
6HR MIN TEMP:  65; 6HR MAX TEMP:  75;

ST PAUL        CLEAR     63  57  81 CALM      29.98F
CRYSTAL        CLEAR     63  56  78 CALM      29.97S
BLAINE         CLEAR     61  57  88 CALM      29.98F
LAKEVILLE      CLEAR     55  55 100 CALM      29.99S
EDEN PRAIRIE   CLEAR     63  56  78 CALM      29.98S
6HR MIN TEMP:  61; 6HR MAX TEMP:  74;

SOUTH ST PAUL  CLEAR     63  56  79 CALM      29.98S
LAKE ELMO      FAIR      59  55  88 CALM      29.99F
$$
MNZ001>005-007-008-013>017-022>024-027-028-030700-
   Northwest Minnesota

CITY           SKY/WX    TMP DP  RH WIND       PRES   REMARKS
BEMIDJI        PTCLDY    64  54  70 SW7       29.93S
HALLOCK        CLEAR     64  63  94 NW3       29.88R FOG
ROSEAU         PTCLDY    66  61  82 W3        29.88R
WARROAD        FAIR      64  61  88 SW6       29.88R
THIEF RVR FALL CLEAR     64  55  72 SW9       29.91S
CROOKSTON      PTCLDY    64  59  82 SW6       29.91S
FOSSTON        PTCLDY    61  54  77 S8        29.94R
DETROIT LAKES  CLEAR     64  54  68 SW8       29.97R
MOORHEAD       CLEAR     64  55  72 S8        29.95R
PARK RAPIDS    CLEAR     61  52  72 S3        29.96R
MAHNOMEN       FAIR      62  55  80 S8        29.94S
$$
MNZ006-009>011-018-025>026-030700-
   North Central Minnesota

CITY           SKY/WX    TMP DP  RH WIND       PRES   REMARKS
BAUDETTE       CLOUDY    66  55  67 SW8       29.87S
FLAG ISLAND    PTCLDY    68  63  83 W7        29.84S
INTL FALLS     PTCLDY    65  56  72 SW7       29.86F
6HR MIN TEMP:  65; 6HR MAX TEMP:  72;

WASKISH        MOCLDY    66  59  77 SW12      29.90S
BIG FORK       PTCLDY    64  57  77 SW7       29.92S
LONGVILLE      PTCLDY    63  55  77 SW5       29.95R
GRAND RAPIDS   MOCLDY    64  54  68 SW3       29.94S
CRANE LAKE     CLOUDY    64  57  77 S2        29.90S
ORR            MOCLDY    64  55  72 CALM      29.88S
COOK           PTCLDY    66  57  72 SW5       29.91S
WALKER         FAIR      62  52  70 SW5       29.94R
$$
MNZ012-019>021-037-030700-
   Northeast Minnesota

CITY           SKY/WX    TMP DP  RH WIND       PRES   REMARKS
DULUTH         CLEAR     63  53  70 W8        29.94S
6HR MIN TEMP:  63; 6HR MAX TEMP:  74;

ELY            CLOUDY    66  55  68 SW8       29.90S
HIBBING        MOCLDY    60  56  86 CALM      29.93R
DULUTH HARBOR  CLEAR     64  59  82 SW13      29.92F
TWO HARBORS    CLEAR     66  57  72 W7        29.91R
SILVER BAY     CLEAR     61  55  82 CALM      29.90S
GRAND MARAIS     N/A     51  50  96 SW6       29.87S
G MARAIS ARPRT PTCLDY    61  55  82 W6        29.91S
$$
MNZ029>031-032-039>041-046>048-054>057-064-030700-
   West Central Minnesota

CITY           SKY/WX    TMP DP  RH WIND       PRES   REMARKS
FERGUS FALLS   CLEAR     63  55  77 S5        29.97R
WHEATON        CLEAR     59  54  82 S8        29.98S
MORRIS         CLEAR     57  54  88 S5        29.97F
ALEXANDRIA     CLEAR     59  52  77 SW6       29.99F
ELBOW LAKE     FAIR      59  55  85 S7        29.97S
WADENA         CLEAR     57  52  82 SW3       29.96S
GLENWOOD       CLEAR     57  54  88 S3        29.99F
APPLETON       CLEAR     57  54  88 S3        29.98S
BENSON         CLEAR     55  54  94 CALM      29.99S
ORTONVILLE     CLEAR     59  54  82 S5        29.98S
MADISON        CLEAR     55  52  88 SW5       29.99S
WILLMAR        FAIR      57  54  88 CALM      30.01S
$$
MNZ033>034-036-042>043-049>051-058-059-030700-
   Central Minnesota

CITY           SKY/WX    TMP DP  RH WIND       PRES   REMARKS
ST CLOUD       CLEAR     57  55  93 CALM      29.98S
6HR MIN TEMP:  56; 6HR MAX TEMP:  74;

SAUK CENTRE    FAIR      53  53  98 CALM      29.99S
PAYNESVILLE    CLEAR     49  48  99 CALM      29.99F
AITKIN         CLEAR     57  52  82 CALM      29.95S
PINE RIVER     CLEAR     57  52  82 CALM      29.99S
BRAINERD       CLEAR     58  54  86 S3        29.97S
STAPLES        CLEAR     55  50  82 SW3       29.97R
LONG PRAIRIE   MOCLDY    52  52 100 CALM      29.98S
LITTLE FALLS   CLEAR     54  52  94 CALM      29.97F
LITCHFIELD     CLEAR     57  55  94 CALM      30.00R
BUFFALO        CLEAR     58  54  86 CALM      29.99S
MAPLE LAKE     CLEAR     56  55  94 CALM      29.99F
$$
MNZ037-044-045-052-053-030700-
   East Central Minnesota

CITY           SKY/WX    TMP DP  RH WIND       PRES   REMARKS
PRINCETON      CLEAR     57  55  94 CALM      29.98S FOG
MORA           CLEAR     55  54  94 CALM      29.99S
CAMBRIDGE      CLEAR     61  52  72 CALM      29.96S
RUSH CITY      MOCLDY    57  55  94 CALM      29.96F
MOOSE LAKE     CLEAR     54  54 100 CALM      29.94S FOG
HINCKLEY       FAIR      55  54  94 CALM      29.96S
CLOQUET        CLEAR     63  54  72 SW6       29.95S
MCGREGOR       CLEAR     61  55  82 SW3       29.96S
$$
MNZ071>073-080-081-089-090-097-098-030700-
   Southwest Minnesota

CITY           SKY/WX    TMP DP  RH WIND       PRES   REMARKS
MONTEVIDEO     CLEAR     57  52  82 CALM      30.00S
GRANITE FALLS  CLEAR     54  51  89 CALM      30.01S
CANBY          CLEAR     58  53  83 SW5       30.01S
MARSHALL       CLEAR     57  50  77 SW3       30.00R
REDWOOD FALLS  CLEAR     58  52  80 SW6       29.99S
OLIVIA         CLEAR     54  50  87 CALM      29.99S
PIPESTONE      CLEAR     57  52  82 CALM      30.02R
WINDOM         CLEAR     54  50  87 CALM      30.02R
WORTHINGTON    CLEAR     52  46  82 W3        30.03R
JACKSON        CLEAR     55  54  94 CALM      30.03R
TRACY          CLEAR     57  52  83 SW6       30.01S
SLAYTON        CLEAR     55  51  87 CALM      30.03S
$$
MNZ065>067-074>077-082>085-091>093-030700-
   South Central Minnesota

CITY           SKY/WX    TMP DP  RH WIND       PRES   REMARKS
MANKATO        CLEAR     63  54  72 CALM      30.00R
NEW ULM        CLEAR     55  54  94 W3        30.00R
ST JAMES       CLEAR     57  54  88 W3        30.02R
FAIRMONT       PTCLDY    57  48  72 CALM      30.00S
GLENCOE        CLEAR     57  56  95 CALM      29.99S
FARIBAULT      CLEAR     55  54  94 CALM      30.00S
OWATONNA       CLEAR     57  54  88 SE5       30.00S
WASECA         CLEAR     54  52  94 CALM      30.01S
ALBERT LEA     PTCLDY    57  55  94 CALM      30.01R
$$
MNZ078>079-086>088-094>096-030700-
   Southeast Minnesota

CITY           SKY/WX    TMP DP  RH WIND       PRES   REMARKS
ROCHESTER      PTCLDY    59  54  83 S5        30.02R
6HR MIN TEMP:  59; 6HR MAX TEMP:  72;

RED WING       CLEAR     55  54  94 CALM      29.98S
STANTON        CLEAR     57  54  88 CALM      29.98S
DODGE CENTER   PTCLDY    57  55  94 CALM      30.01S
WINONA         PTCLDY    59  57  94 CALM      29.99S
AUSTIN         PTCLDY    59  55  88 CALM      30.01R
PRESTON        PTCLDY    59  55  86 S3        30.01S
$$
ABBREVIATIONS USED IN REMARKS
   TC - TEMPERATURES IN CELSIUS
  WCI - WIND CHILL INDEX
   HX - HEAT INDEX
  VSB - VISIBILITY
$$



USA.gov is the U.S. government's official web portal to all federal, state and local government web resources and services.